www.pogodaiklimat.ru

Погода и климат >> Архив погоды >> Парагвай >> Villarrica


ПОГОДА в Villarrica

  • Прогноз погоды в Villarrica
  • Монитор погоды в Villarrica
  • Климат города

АРХИВ ПОГОДЫ в Villarrica

Время (UTC), дата Ветер
(напр.,м/с)
 
Видим.   Явления Облачность Т
(С)
Тd
(С)
f
(%)
Тe
(С)
Тes
(С)
Комфортность P
(гПа)
Po
(гПа)
Тmin
(С)
Tmax
(С)
R
(мм)
R24
(мм)
S
(см)
12 11.10 ЮВ 2 20 км ясно +22.0 +19.2 84 +27 +35 душно 1013.8 994.9 +19.4 11
18 11.10 СВ 2 20 км 8/8 600 м
[Cu Sc]
+29.2 +21.7 64 +37 +40 очень
душно
1009.9 991.4
00 12.10 СВ 2 20 км ясно +24.6 +22.0 85 +32 +32 очень
душно
1010.3 991.6 +30.0
09 12.10 СВ 2 20 км 9/0 2000 м
[Ac As]
+22.4 +20.1 87 +29 +29 очень
душно
1010.1 991.2
12 12.10 штиль 0 20 км {дождь} 10/10 600 м
[Sc]
+22.0 +20.6 92 +28 +28 душно 1011.2 992.3 +21.5 4
18 12.10 С 2 20 км 9/9 600 м
[Cu Sc]
+30.0 +24.2 71 +42 +43 опасность
перегрева
1009.2 990.8
00 13.10 Ю 3 20 км гроза без осадков 9/9 600 м
[Cb cap]
+26.6 +23.0 81 +36 +36 очень
душно
1008.4 989.8 +31.0
03 13.10 Ю 3 20 км гроза без осадков 9/9 600 м
[Cb cap]
+26.6 +23.0 81 +36 +36 очень
душно
1008.4 989.8 +31.0
09 13.10 штиль 0 4000 м гроза, ливневой дождь 10/5 90 м
[Cb cap As op]
+19.6 +19.6 100 +22 +22 комфорт 1011.3 992.3 51
12 13.10 Ю 1 10 км слабый дождь {гроза} 10/5 90 м
[Frnb As op]
+18.0 +18.0 100 +19 +20 1014.8 995.5 +18.0 33
18 13.10 Ю 3 20 км {дождь} 10/10 90 м
[St]
+19.6 +17.2 86 +22 +22 комфорт 1013.5 994.5 2
00 14.10 Ю 2 20 км 10/10 90 м
[St]
+18.2 +17.6 96 +19 +19 1014.0 994.8 +26.0
09 14.10 Ю 3 20 км 10/10 90 м
[St]
+17.2 +16.7 97 +17 +17 1012.7 993.7
18 14.10 штиль 0 8000 м слабая морось {дождь} 10/10 90 м
[St]
+18.6 +17.9 96 +20 +20 1011.9 992.8 4
00 15.10 штиль 0 20 км 10/10 90 м
[St]
+18.8 +18.8 100 +20 +20 1011.9 992.8 +19.4
09 15.10 Ю 1 200 м туман 10/10 90 м
[St]
+17.4 +17.0 97 +18 +18 1012.0 992.8
12 15.10 Ю 2 20 км 5/3 1200 м
[Cu hum Ci]
+19.4 +17.4 88 +22 +27 комфорт 1011.9 992.8 +17.4 4
18 15.10 Ю 2 20 км 5/3 1200 м
[Cu hum Ci]
+25.6 +16.2 56 +29 +40 душно 1009.2 990.5
00 16.10 штиль 0 20 км ясно +22.0 +17.1 74 +26 +26 душно 1008.3 989.5 +27.0
12 16.10 СВ 2 20 км ясно +22.6 +18.5 78 +28 +36 душно 1010.0 991.1 +16.5
18 16.10 С 2 20 км 3/3 1200 м
[Cu hum]
+29.4 +19.5 55 +35 +46 очень
душно
1005.6 987.2
00 17.10 штиль 0 20 км 3/0 2000 м
[Ac lent]
+25.8 +21.6 78 +33 +33 очень
душно
1006.3 987.6 +30.4
09 17.10 штиль 0 20 км 9/0 2000 м
[Ac As]
+25.0 +22.1 84 +32 +32 очень
душно
1005.2 986.6
12 17.10 СВ 4 20 км 9/9 600 м
[Sc]
+26.6 +22.9 80 +35 +36 очень
душно
1007.7 989.2 +22.6
18 17.10 С 5 20 км {дождь} ясно +30.0 +22.9 66 +40 +48 очень
душно
1005.2 986.9 5
00 18.10 СВ 3 20 км ясно +26.2 +22.8 82 +35 +35 очень
душно
1005.2 986.6 +31.0
09 18.10 штиль 0 20 км 9/0 2000 м
[Ac As]
+24.6 +22.2 87 +32 +32 очень
душно
1005.2 986.6

 

Местоположение метеостанции Villarrica (Парагвай): широта -25.75 долгота -56.43 высота над уровнем моря 161 м.

В архиве по умолчанию представлена погода в Villarrica за последнюю неделю. Архивные данные за месяц целиком и за предыдущие месяцы, начиная с января 2011 года, Вы можете получить, выбрав интересующий диапазон дат из раскрывающегося списка и нажав кнопку "Ввод!".


*Определитесь, кто Вы:
робот инопланетянин человек

Внимание! Время в таблицах - всемирное. Для получения местного времени необходимо прибавить поправку, которая в Villarrica равна -4 ч.

Смотрите также архив погоды в соседних городах и на ближайших метеорологических станциях:

Погода в Coronel Oviedo (Парагвай) (34 км)
Погода в Caazapa (Парагвай) (48 км)
Погода в Paraguari (Парагвай) (71 км)
Погода в Quyquyhat (Парагвай) (76 км)
Погода в Asuncion (Парагвай) (122 км)
Погода в San Estanislao (Парагвай) (122 км)
Погода в San Juan Bautista Misiones (Парагвай) (124 км)
Погода в Aeropuerto Int. Guarani (Парагвай) (162 км)
Погода в Capitan Meza (Парагвай) (180 км)
Погода в Encarnacion (Парагвай) (183 км)

Пояснения к столбцам:

Ветер - указаны скорость ветра в м/с - средняя за 10 мин, порывы в срок и между сроками (в фигурных скобках) и направление, откуда дует ветер: С - северный, СВ - северо-восточный, В - восточный, ЮВ - юго-восточный, Ю - южный, ЮЗ - юго-западный, З - западный, СЗ - северо-западный.
Видимость - горизонтальная дальность видимости в метрах или километрах. При видимости от 1 до 10 км при отсутствии осадков обычно наблюдается дымка, при ухудшении видимости до 1 км и менее - туман. В сухую погоду видимость может ухудшаться дымом, пылью или мглою.
Явления - указаны атмосферные явления, наблюдавшиеся в срок или в последний час перед сроком; фигурными скобками обозначены явления, наблюдавшиеся между сроками (за 1-3 часа до срока); квадратными скобками обозначены град или гололедные отложения с указанием их диаметра в мм.
Облачность - указаны через наклонную черту общая и нижняя облачность в баллах и высота нижней границы облаков в метрах; квадратными скобками обозначены формы облаков: Ci - перистые, Cs - перисто-слоистые, Cc - перисто-кучевые, Ac - высококучевые, As - высокослоистые, Sc - слоисто-кучевые, Ns - слоисто-дождевые, Cu - кучевые, Cb - кучево-дождевые. Подробнее классификацию облаков см. в Атласе облаков (PDF).
T - Температура воздуха - температура, измеренная на высоте 2 м над землей.
Td - Температура точки росы - температура, при понижении до которой содержащийся в воздухе водяной пар достигнет насыщения.
f - Относительная влажность воздуха - влажноcть воздуха, измеренная на высоте 2 м над землей.
Te - Эффективная температура - температура, которую ощущает одетый по сезону человек в тени. Характеристика душности погоды. При расчете учитывается влияние влажности воздуха и скорости ветра на теплоощущения человека.
Tes - Эффективная температура на солнце - температура, которую ощущает человек, с поправкой на солнечный нагрев. Характеристика знойности погоды. Зависит от высоты солнца над горизонтом, облачности и скорости ветра. Ночью, в пасмурную погоду, а также при ветре 12 м/с и более поправка равна нулю.
P - Атмосферное давление - приведенное к уровню моря атмосферное давление.
Po - Атмосферное давление - измеренное на уровне метеостанции атмосферное давление.
Tmin - Минимальная температура - минимум температуры воздуха на высоте 2 м над землей.
Tmax - Максимальная температура - максимум температуры воздуха на высоте 2 м над землей.
R - Количество осадков - Количество выпавших осадков за период времени, мм. При наведении курсора мыши на число - период времени, за который выпало указанное количество осадков.
R24 - Количество осадков - Количество выпавших осадков за 24 часа, мм.
S - Снежный покров - Высота снежного покрова, см. При наведении курсора мыши на число - состояние снежного покрова и степень покрытия местности в баллах.